Regional Weather Roundup
Issued by NWS San Angelo, TX

Home | Current Version | Previous Version | Text Only | Print | Product List | Glossary On
Versions: 1 2 3 4 5 6 7 8 9 10 11 12 13 14 15 16 17 18 19 20 21 22 23 24 25 26 27 28 29 30 31 32 33 34 35 36 37 38 39 40 41 42 43 44 45 46 47 48 49 50
000
ASUS44 KSJT 062302
RWRSJT
WEST CENTRAL TEXAS REGIONAL WEATHER ROUNDUP
NATIONAL WEATHER SERVICE SAN ANGELO TX
500 PM CST TUE DEC 06 2016

NOTE: "FAIR" INDICATES FEW OR NO CLOUDS BELOW 12,000 FEET WITH NO
SIGNIFICANT WEATHER AND/OR OBSTRUCTIONS TO VISIBILITY.

TXZ049-054-064>066-071>073-076>078-098-099-113-114-127-128-139-140-
154-155-168>170-070000
...LOCATIONS ACROSS WEST CENTRAL TEXAS...

CITY           SKY/WX    TMP DP  RH WIND       PRES   REMARKS
SAN ANGELO     CLOUDY    46  37  71 N7        30.04F
ABILENE        CLOUDY    45  31  58 N9        30.06S
DYESS AFB      NOT AVBL
JUNCTION       CLOUDY    46  41  82 N8        30.04R
SWEETWATER     NOT AVBL
BROWNWOOD      NOT AVBL
COLEMAN        CLOUDY    46  37  73 N5        30.06S
SONORA         NOT AVBL
OZONA          NOT AVBL
BRADY          NOT AVBL
$$

TEXAS PANHANDLE/OKLAHOMA PANHANDLE

CITY           SKY/WX    TMP DP  RH WIND       PRES   REMARKS
AMARILLO       CLOUDY    36   6  28 SE9       30.01S WCI  29
BORGER         CLOUDY    36   7  29 E6        30.03S WCI  31
CANADIAN       CLOUDY    37   7  28 E3        30.06S
DALHART        CLEAR     35   2  24 S14       29.98S WCI  26
DUMAS          CLEAR     33   2  26 SE9       30.00S WCI  26
GUYMON         NOT AVBL
HEREFORD       PTCLDY    39   8  27 S13G20    30.00R WCI  32
PAMPA          CLOUDY    36   7  29 SE6       30.03S WCI  31
PERRYTON       CLOUDY    35   8  32 SE5       30.03S WCI  31
$$

SOUTHERN PANHANDLE/SOUTH PLAINS/ROLLING PLAINS

CITY           SKY/WX    TMP DP  RH WIND       PRES   REMARKS
LUBBOCK        MOCLDY    40  19  43 SE9       29.99F WCI  34
SNYDER         CLOUDY    43  26  50 NE7       30.04F WCI  39
CHILDRESS      PTCLDY    44  17  33 E5        30.06F
SEMINOLE       PTCLDY    43  27  51 SE10      30.00F WCI  38
$$

PERMIAN BASIN

CITY           SKY/WX    TMP DP  RH WIND       PRES   REMARKS
MIDLAND        PTCLDY    45  29  53 E7        30.00F
ODESSA         PTCLDY    45  29  53 E8        30.00F
WINK           PTCLDY    49  28  44 NE5       29.97F
$$

FAR WEST/SOUTHWEST MOUNTAINS/TRANS PECOS

CITY           SKY/WX    TMP DP  RH WIND       PRES   REMARKS
ALPINE         CLEAR     50  30  46 E5        30.04S
DRYDEN           N/A     58  35  42 N12       29.97R
EL PASO        PTSUNNY   61  29  29 SW12      29.90F
FORT STOCKTON  CLOUDY    51  31  46 NE6       29.99F
GUADALUPE PASS NOT AVBL
MARFA          CLEAR     63  28  26 SW7       29.97F
PECOS          CLEAR     50  27  40 E3        29.99F
$$

DALLAS/FORT WORTH METROPLEX

CITY           SKY/WX    TMP DP  RH WIND       PRES   REMARKS
DFW AIRPORT    CLOUDY    49  38  65 N12       30.04R
FTW MEACHAM    CLOUDY    51  38  60 NW8       30.04R
DAL-EXECUTIVE  CLOUDY    50  42  74 N9        30.03R
GRAND PRAIRIE  CLOUDY    50  41  71 NW7       30.06R
ADDISON        CLOUDY    48  41  76 N10       30.05R
MESQUITE       CLOUDY    48  43  81 NW8       30.04R
LANCASTER      CLOUDY    55  48  77 NW5       30.05R
$$

NORTH CENTRAL TEXAS

CITY           SKY/WX    TMP DP  RH WIND       PRES   REMARKS
SHRMAN/DENISON NOT AVBL
GAINESVILLE    CLOUDY    46  31  54 N5        30.08R
BRIDGEPORT     PTCLDY    47  35  62 N5        30.07S
DENTON         CLOUDY    49  37  63 N10       30.05R
WAXAHACHIE     CLOUDY    48  44  87 NW6       30.05R
GRANBURY       CLOUDY    48  40  74 W3        30.07S
$$

WESTERN NORTH TEXAS

CITY           SKY/WX    TMP DP  RH WIND       PRES   REMARKS
WICHITA FALLS  CLOUDY    45  26  47 N9        30.07S
VERNON         PTCLDY    45  24  42 N8        30.08F
BRECKENRIDGE   NOT AVBL
COMANCHE       CLOUDY    44  42  93 NW7       30.06S WCI  40
$$

CENTRAL AND SOUTH CENTRAL TEXAS

CITY           SKY/WX    TMP DP  RH WIND       PRES   REMARKS
AUSTIN/BERGSTM CLOUDY    55  48  77 N13       30.02R
WACO           CLOUDY    49  45  86 NW12      30.05R
HILLSBORO      CLOUDY    48  44  85 NW8       30.05R
TEMPLE         CLOUDY    52  46  80 N9        30.03R
KILLEEN-GRAY   NOT AVBL
FORT HOOD      NOT AVBL
GEORGETOWN     CLOUDY    52  45  76 N5        30.03R
LAGO VISTA     CLOUDY    50  47  89 N3        30.03R
SAN MARCOS     CLOUDY    54  46  76 N9        30.02R
NEW BRAUNFELS  CLOUDY    56  46  69 N14       30.00R
RANDOLPH AFB   NOT AVBL
SAN ANTONIO    MOCLDY    56  44  64 N10       30.01R
STINSON        CLEAR     58  45  62 NE13      29.98R
PLEASANTON     NOT AVBL
LA GRANGE      MOCLDY    57  50  78 N6        29.99R
GIDDINGS       CLOUDY    53  48  83 N5        30.04R
$$

EAST TEXAS

CITY           SKY/WX    TMP DP  RH WIND       PRES   REMARKS
PARIS          CLOUDY    46  39  76 N8        30.03R
CLARKSVILLE    NOT AVBL
TYLER          CLOUDY    50  48  93 CALM      30.01R
LONGVIEW       CLOUDY    51  49  92 CALM      29.99R
PALESTINE      CLOUDY    51  49  93 N3        30.02R
NACOGDOCHES    CLOUDY    52  48  87 N9        29.98R
$$

TEXAS HILL COUNTRY AND EDWARDS PLATEAU

CITY           SKY/WX    TMP DP  RH WIND       PRES   REMARKS
LLANO          CLOUDY    48  48 100 N10       30.08R
HORSESHOE BAY  CLOUDY    51  46  83 NW3       30.04R
KERRVILLE      CLOUDY    51  46  84 N10       30.02R
FREDERICKSBRG  NOT AVBL
ROCKSPRINGS    CLEAR     48  41  76 NE13      30.01S
HONDO          CLEAR     59  45  59 NE15      29.99R
UVALDE         CLEAR     61  46  57 NE13      29.97R
DEL RIO        CLEAR     63  43  48 N6        29.96R
$$

SOUTHEAST TEXAS

CITY           SKY/WX    TMP DP  RH WIND       PRES   REMARKS
COLLEGE STN    CLOUDY    53  50  89 N14       30.00R
CALDWELL       NOT AVBL
CROCKETT       NOT AVBL
BRENHAM        NOT AVBL
HUNTSVILLE     CLOUDY    54  49  83 VRB3      29.99R
CONROE         CLOUDY    57  50  77 N5        29.98R
HOUSTON BUSH   PTCLDY    62  53  72 N14       29.95R
HOUSTON HOBBY  PTCLDY    67  50  54 NW10      29.93R
PERLAND        CLEAR     69  50  50 NW5       29.95R
WHARTON        CLEAR     64  50  60 NW9       29.96R
$$

THE UPPER TEXAS COAST

CITY           SKY/WX    TMP DP  RH WIND       PRES   REMARKS
ORANGE         CLEAR     64  53  66 CALM      29.95R
PORT ARTHUR    PTCLDY    66  56  70 CALM      29.92R
GALVESTON      CLEAR     70  55  59 W6        29.93R
ANGLETON       CLEAR     69  53  56 NW8       29.93R
BAY CITY       CLEAR     68  53  60 NW5       29.94R
$$

TEXAS COASTAL BEND, RIO GRANDE PLAINS DEEP SOUTH TEXAS

CITY           SKY/WX    TMP DP  RH WIND       PRES   REMARKS
VICTORIA       CLEAR     64  51  62 NW10      29.96R
BEEVILLE       FAIR      70  53  54 N7        29.94R
ROCKPORT         N/A    N/A N/A N/A MISG      29.92R
PORT ARANSAS   CLEAR     68  62  78 CALM      29.92R
PORT LAVACA    CLEAR     67  55  64 N8        29.95R
CORPUS CHRISTI PTCLDY    75  53  46 NE7       29.91R
KINGSVILLE NAS NOT AVBL
COTULLA        CLEAR     74  46  36 NE14      29.93R
LAREDO         CLEAR     78  52  40 N9        29.91R
BROWNSVILLE    CLEAR     76  65  68 S9        29.91R
PORT ISABEL    CLEAR     77  63  61 SE6       29.90R
HEBBRONVILLE   CLEAR     78  40  25 NE8       29.91R
MCALLEN        CLOUDY    81  53  37 E5        29.90R
WESLACO        NOT AVBL
FALFURRIAS     CLEAR     80  41  25 CALM      29.89R
EDINBURG       CLOUDY    79  52  38 SE3       29.90R
$$



USA.gov is the U.S. government's official web portal to all federal, state and local government web resources and services.